Location: Jackson
(42.2460°N, 84.4010°W)
Time: 19:30:03
(UTC-04:00)

Courier 1B Rocket - Pass Details

Date: 08 February 2026
Orbit: 920 x 1201 km, 28.2° (Epoch: 12 March)

Event Time Altitude Azimuth Distance (km) Brightness Sun altitude
Rises 01:30:58 0° 244° (WSW) 3,890 - -61.4°
Reaches altitude 10° 01:34:05 10° 233° (SW) 2,978 - -61.2°
Maximum altitude 01:40:06 27° 178° (S) 2,033 - -60.8°
Drops below altitude 10° 01:46:22 10° 124° (ESE) 3,104 - -60.3°
Sets 01:49:42 0° 113° (ESE) 4,085 - -60.0°
